[[{"header":{"parameterUnit":"m.s-1","parameterCategory":1,"la1":30.2991,"la2":30.254,"lo1":-89.0895,"lo2":-89.0444,"dy":0.0017,"dx":0.0017,"nx":28,"ny":28,"refTime":"2025-07-03T09:00:00:Z","depth":0,"parameterNumber":2,"parameterNumberName":"U-component_of_WINDS"},"data":[0,0,0,0,0,0,0,0,0,0,0,0,0,0,0,0,0,0,0,0,0,0,0,0,0,0,0,0,0,0,0,0,0,0,0,0,0,0,0,0,0,0,0,0,0,0,0,0,0,0,0,0,0,0,0,0,0,0,1.0002,1.0,0,0.989,0.9888,0.9887,0.9753,0.9751,0.9749,0.9747,0.9633,0.9632,0.963,0,0,0,0,0,0,0,0,0,0,0,0,0,1.0101,1.01,1.0002,1.0,0.9999,0.989,0.9888,0.9887,0.9753,0.9751,0.9748,0.9746,0.9633,0.9632,0.963,0,0,0,0,0,0,0,0,0,0,0,0,0,1.003,1.0099,1.0002,0.9919,0.9911,0.989,0.9888,0.9886,0.9754,0.9751,0.9748,0.9745,0.9633,0.9632,0.963,0.9682,0,0,0.9625,0.9624,0,0,0,0,0,0,0,0,1.0035,1.0027,0.9933,0.9925,0.9915,0.9832,0.9881,0.9818,0.9755,0.9813,0.9747,0.9743,0.9702,0.9694,0.968,0.9677,0.9672,0.9625,0.9624,0.9623,0.9623,0,0,0,0,0,0,0,1.004,1.0031,0.9957,0.9932,0.9921,0.9888,0.9874,0.9869,0.9776,0.9808,0.9798,0.9787,0.9696,0.9682,0.9676,0.967,0.9625,0.9624,0.9622,0.9622,0.9705,0.9709,0,0,0,0,0,0,1.0057,1.0036,0.9961,0.9954,0.9968,0.9889,0.9873,0.9862,0.9776,0.976,0.9789,0.9781,0.9686,0.9678,0.9672,0.9728,0.9623,0.9622,0.9621,0.9702,0.9706,0.971,0,0,0,0,0,0,1.006,1.0051,0.9965,0.9992,0.9979,0.989,0.9878,0.9861,0.9847,0.9762,0.9745,0.9792,0.9683,0.9674,0.9681,0.9723,0.9621,0.9619,0.9698,0.9703,0.9708,0.9842,0,0,0,0,0,0,1.0063,1.0053,1.0072,0.9994,0.9978,0.9977,0.9881,0.9861,0.9844,0.9832,0.9759,0.9745,0.968,0.9684,0.9679,0.9718,0.9618,0.9694,0.9701,0.9706,0.9833,0.9851,0.9866,0,0,0,0,0,1.0067,1.0114,1.0074,1.0065,0.9999,0.9979,0.997,0.9895,0.9848,0.9867,0.9812,0.9747,0.9718,0.9686,0.9679,0.9719,0.9691,0.9699,0.9706,0.9826,0.9847,0.9865,0,0,0,0,0,0,1.02,1.0102,1.0056,1.0079,1.0039,0.9957,0.9978,0.992,0.9892,0.9882,0.9789,0.9774,0.9793,0.9755,0.9721,0.9765,0.9695,0.9702,0.9789,0.9808,0.9824,0.9834,0.9617,0,0,0,0,0,1.0232,1.0224,1.0138,1.0167,1.0149,1.0067,1.0056,1.0001,0.9956,0.9938,0.9883,0.9842,0.9823,0.9813,0.9791,0.9826,0.981,0.985,0.9866,0.988,0.9887,0.9905,0.9923,0.9733,0.9733,0.9733,0,0,1.0298,1.0243,1.0244,1.0193,1.0155,1.0149,1.0054,1.0051,1.0046,0.9937,0.9941,0.99,0.9847,0.9869,0.9876,0.9839,0.9936,0.9889,0.9901,0.9901,0.9914,0.9932,0.9948,0.9738,0.9737,0.9737,0,0,1.0416,1.0373,1.0393,1.0357,1.0301,1.0246,1.0251,1.0178,1.0146,1.0148,1.0067,1.0059,1.0029,0.9996,0.9975,1.008,1.002,1.0075,1.016,1.0179,1.0194,1.0206,1.0246,1.0262,1.0082,1.0083,1.0083,0,1.0506,1.0493,1.0411,1.0414,1.0394,1.0295,1.0315,1.0284,1.0224,1.0213,1.0171,1.0132,1.0089,1.0103,1.0129,1.0114,1.0118,1.0084,1.0198,1.021,1.0221,1.0258,1.0273,1.009,1.0089,1.0088,1.0088,0,1.0607,1.06,1.0623,1.0568,1.055,1.0562,1.0482,1.0474,1.0421,1.0371,1.0375,1.032,1.0286,1.0284,1.0232,1.0291,1.027,1.0215,1.0143,1.0248,1.0281,1.0294,1.01,1.0098,1.0096,1.0094,0,0,1.0808,1.0707,1.0717,1.0691,1.0621,1.0614,1.0621,1.0588,1.0584,1.0546,1.0551,1.0527,1.0476,1.0452,1.0395,1.0411,1.0501,1.0353,1.0351,1.0385,1.0565,1.0609,1.0627,1.0459,1.0462,1.0463,1.057,0,1.0916,1.0923,1.0848,1.0876,1.0869,1.0774,1.078,1.0739,1.0692,1.0679,1.0627,1.0613,1.0545,1.0531,1.0542,1.0488,1.0536,1.0479,1.0465,1.0465,1.0484,1.0644,1.069,1.0794,1.0582,1.0584,1.0586,0,1.1042,1.1012,1.1039,1.0969,1.0963,1.097,1.0934,1.0923,1.0874,1.0839,1.0813,1.0747,1.075,1.0681,1.0684,1.0647,1.0636,1.0609,1.0611,1.0609,1.0534,1.0649,1.0824,1.0841,1.0605,1.0604,1.0602,0,1.119,1.1154,1.1166,1.1147,1.1064,1.1072,1.1038,1.0986,1.0971,1.0939,1.0929,1.0898,1.0882,1.086,1.0789,1.0744,1.0802,1.0725,1.0774,1.0776,1.0793,1.0793,1.0972,1.0782,1.0782,1.0781,1.0781,0,1.1319,1.134,1.1231,1.124,1.126,1.1174,1.1197,1.1154,1.1108,1.1107,1.1021,1.1022,1.0926,1.0916,1.0859,1.0872,1.0865,1.0838,1.0823,1.0847,1.0851,1.0841,1.0833,1.0785,1.0784,1.0784,1.0783,0,1.1489,1.1416,1.1423,1.1345,1.1326,1.1345,1.1278,1.1282,1.1229,1.1228,1.1223,1.1141,1.1124,1.105,1.1016,1.0978,1.1011,1.098,1.1028,1.1019,1.1073,1.107,1.1254,1.1275,1.1069,1.1071,1.1073,0,1.1578,1.1592,1.1515,1.1507,1.1477,1.1466,1.1451,1.1366,1.1354,1.1299,1.1311,1.1287,1.1264,1.1242,1.118,1.1154,1.1123,1.1189,1.1119,1.1143,1.1128,1.1129,1.1131,1.1206,1.1208,1.1211,1.1212,0,1.1744,1.1708,1.1689,1.1657,1.1641,1.1612,1.1578,1.1577,1.1483,1.1474,1.1456,1.1438,1.1403,1.1382,1.1345,1.131,1.1247,1.1235,1.1245,1.1271,1.13,1.1288,1.1073,1.1232,1.123,1.1228,1.1227,1.1226,1.1878,1.1887,1.1834,1.1816,1.1781,1.1752,1.1753,1.17,1.1683,1.1649,1.1599,1.1589,1.1539,1.1483,1.1454,1.1444,1.1408,1.1423,1.1427,1.1433,1.1446,1.1299,1.1437,1.1436,1.1436,1.1435,1.1435,0,1.2043,1.2004,1.1988,1.1944,1.193,1.1869,1.1828,1.1821,1.1813,1.1772,1.1751,1.1731,1.171,1.1646,1.1618,1.1624,1.1594,1.162,1.162,1.1614,1.1478,1.1474,1.1644,1.1644,1.1644,1.1644,1.1644,1.1644,1.2127,1.214,1.2097,1.2092,1.2052,1.2041,1.2023,1.1996,1.1963,1.1945,1.1927,1.1885,1.1835,1.1803,1.1781,1.1763,1.1758,1.1794,1.1767,1.1643,1.1623,1.1604,1.1599,1.1793,1.1793,1.1903,1.1904,1.1905]},{"header":{"parameterUnit":"m.s-1","parameterCategory":1,"la1":30.2991,"la2":30.254,"lo1":-89.0895,"lo2":-89.0444,"dy":0.0017,"dx":0.0017,"nx":28,"ny":28,"refTime":"2025-07-03T09:00:00:Z","depth":0,"parameterNumber":3,"parameterNumberName":"V-component_of_WINDS"},"data":[0,0,0,0,0,0,0,0,0,0,0,0,0,0,0,0,0,0,0,0,0,0,0,0,0,0,0,0,0,0,0,0,0,0,0,0,0,0,0,0,0,0,0,0,0,0,0,0,0,0,0,0,0,0,0,0,0,0,-1.6308,-1.6308,0,-1.6373,-1.6373,-1.6374,-1.6345,-1.6343,-1.6342,-1.634,-1.6406,-1.6409,-1.6412,0,0,0,0,0,0,0,0,0,0,0,0,0,-1.6158,-1.6161,-1.6308,-1.6308,-1.6309,-1.6372,-1.6373,-1.6374,-1.6345,-1.6343,-1.6341,-1.634,-1.6405,-1.6408,-1.6412,0,0,0,0,0,0,0,0,0,0,0,0,0,-1.6223,-1.6162,-1.6307,-1.6302,-1.6303,-1.6372,-1.6373,-1.6374,-1.6346,-1.6343,-1.6341,-1.6339,-1.6403,-1.6408,-1.6413,-1.6491,0,0,-1.6428,-1.643,0,0,0,0,0,0,0,0,-1.622,-1.6229,-1.6302,-1.6303,-1.6303,-1.6348,-1.6345,-1.6413,-1.6346,-1.6329,-1.634,-1.6338,-1.6388,-1.6394,-1.6412,-1.6494,-1.6497,-1.6428,-1.6431,-1.6433,-1.6435,0,0,0,0,0,0,0,-1.6215,-1.6226,-1.6333,-1.6303,-1.6304,-1.6297,-1.6304,-1.6358,-1.6372,-1.6331,-1.6329,-1.6337,-1.6388,-1.6407,-1.6413,-1.6498,-1.6428,-1.6432,-1.6435,-1.6437,-1.6648,-1.6651,0,0,0,0,0,0,-1.6211,-1.6222,-1.6331,-1.6335,-1.6255,-1.6302,-1.6309,-1.6336,-1.6371,-1.6374,-1.6339,-1.6335,-1.64,-1.6407,-1.6415,-1.651,-1.6433,-1.6438,-1.644,-1.6646,-1.6649,-1.6652,0,0,0,0,0,0,-1.6208,-1.6221,-1.6329,-1.6278,-1.6291,-1.6307,-1.6338,-1.6339,-1.6358,-1.6377,-1.6379,-1.6356,-1.6399,-1.6408,-1.6473,-1.6512,-1.644,-1.6444,-1.6643,-1.6647,-1.665,-1.6699,0,0,0,0,0,0,-1.6204,-1.622,-1.625,-1.6279,-1.6294,-1.6385,-1.634,-1.6342,-1.6366,-1.6362,-1.6393,-1.6396,-1.6397,-1.6466,-1.6478,-1.6517,-1.6448,-1.6639,-1.6644,-1.6649,-1.6694,-1.6704,-1.6713,0,0,0,0,0,-1.6198,-1.626,-1.6251,-1.6264,-1.6332,-1.6387,-1.6396,-1.6396,-1.637,-1.64,-1.6412,-1.6395,-1.6505,-1.6472,-1.6486,-1.6527,-1.6637,-1.6643,-1.6649,-1.669,-1.6702,-1.6713,0,0,0,0,0,0,-1.6234,-1.6264,-1.6254,-1.6327,-1.6355,-1.6382,-1.642,-1.6409,-1.6445,-1.6439,-1.6438,-1.6445,-1.6512,-1.6526,-1.6488,-1.6605,-1.6567,-1.6576,-1.6594,-1.6606,-1.6615,-1.661,-1.6452,0,0,0,0,0,-1.625,-1.6293,-1.6317,-1.6379,-1.6394,-1.6405,-1.6429,-1.6427,-1.6455,-1.6467,-1.6484,-1.6512,-1.6553,-1.658,-1.6619,-1.6696,-1.6703,-1.6731,-1.674,-1.6748,-1.6756,-1.6799,-1.6812,-1.6672,-1.6672,-1.6672,0,0,-1.6284,-1.6306,-1.6333,-1.6387,-1.6408,-1.6453,-1.6415,-1.6463,-1.6496,-1.6474,-1.6536,-1.655,-1.6581,-1.6652,-1.6685,-1.6666,-1.6797,-1.6756,-1.6762,-1.6766,-1.6807,-1.682,-1.6832,-1.6676,-1.6675,-1.6675,0,0,-1.637,-1.639,-1.6445,-1.6467,-1.65,-1.6508,-1.6521,-1.655,-1.6559,-1.6621,-1.6606,-1.6645,-1.6715,-1.6739,-1.676,-1.6856,-1.6842,-1.6868,-1.6918,-1.696,-1.6971,-1.6981,-1.7016,-1.7029,-1.6876,-1.6876,-1.6876,0,-1.6408,-1.6475,-1.6474,-1.6525,-1.6549,-1.6532,-1.6588,-1.6609,-1.6653,-1.667,-1.6649,-1.6738,-1.6758,-1.6835,-1.6859,-1.6876,-1.6892,-1.6865,-1.697,-1.698,-1.6989,-1.7022,-1.7035,-1.6879,-1.6879,-1.6879,-1.6878,0,-1.652,-1.6567,-1.6607,-1.6651,-1.668,-1.6733,-1.6741,-1.677,-1.6766,-1.6776,-1.684,-1.6863,-1.6907,-1.6925,-1.6921,-1.7003,-1.699,-1.6969,-1.6931,-1.7005,-1.7037,-1.705,-1.6884,-1.6883,-1.6882,-1.6881,0,0,-1.6629,-1.6673,-1.6688,-1.6708,-1.6744,-1.678,-1.6832,-1.6876,-1.6902,-1.6933,-1.6977,-1.7038,-1.7019,-1.7043,-1.7042,-1.7079,-1.7155,-1.7054,-1.7054,-1.7072,-1.7247,-1.7263,-1.7278,-1.7146,-1.7148,-1.715,-1.7245,0,-1.6717,-1.681,-1.6812,-1.6896,-1.694,-1.6925,-1.6971,-1.6998,-1.7008,-1.7047,-1.7058,-1.7102,-1.7074,-1.7089,-1.7124,-1.7138,-1.719,-1.7131,-1.7187,-1.7189,-1.7181,-1.7294,-1.7311,-1.7399,-1.7257,-1.7259,-1.7261,0,-1.6833,-1.6869,-1.6958,-1.6989,-1.7007,-1.7049,-1.7089,-1.7126,-1.7157,-1.7162,-1.719,-1.7184,-1.7237,-1.7198,-1.7272,-1.7232,-1.7255,-1.7266,-1.7269,-1.7275,-1.723,-1.7304,-1.7427,-1.7441,-1.728,-1.7278,-1.7277,0,-1.6904,-1.6975,-1.7038,-1.7056,-1.7093,-1.7123,-1.7139,-1.7168,-1.7194,-1.723,-1.7248,-1.7289,-1.7311,-1.7344,-1.7349,-1.7319,-1.7424,-1.7384,-1.743,-1.743,-1.7453,-1.7452,-1.7583,-1.7467,-1.7467,-1.7467,-1.7467,0,-1.7003,-1.7059,-1.7071,-1.7109,-1.7171,-1.7173,-1.7235,-1.7249,-1.7275,-1.7317,-1.7306,-1.7345,-1.7349,-1.7389,-1.7394,-1.7456,-1.7465,-1.7472,-1.7472,-1.7473,-1.7473,-1.7489,-1.7483,-1.747,-1.747,-1.7469,-1.7468,0,-1.7093,-1.7104,-1.7172,-1.7202,-1.7211,-1.7255,-1.7281,-1.7319,-1.7329,-1.7382,-1.7394,-1.741,-1.7457,-1.7466,-1.7521,-1.7524,-1.7598,-1.7592,-1.7588,-1.7588,-1.7634,-1.763,-1.7781,-1.7801,-1.7671,-1.7672,-1.7673,0,-1.7156,-1.7199,-1.7234,-1.7262,-1.728,-1.7324,-1.7352,-1.7356,-1.7385,-1.7424,-1.7457,-1.7503,-1.7541,-1.7617,-1.7634,-1.7676,-1.7672,-1.7722,-1.7678,-1.7678,-1.7674,-1.7672,-1.7676,-1.773,-1.7731,-1.7733,-1.7734,0,-1.7267,-1.727,-1.731,-1.7353,-1.7387,-1.742,-1.7452,-1.7475,-1.7483,-1.7516,-1.7565,-1.7594,-1.7652,-1.7698,-1.7741,-1.7758,-1.7748,-1.7747,-1.776,-1.7762,-1.7759,-1.7762,-1.7612,-1.7744,-1.7743,-1.7742,-1.7741,-1.7741,-1.7346,-1.7384,-1.7415,-1.7461,-1.7485,-1.7516,-1.7553,-1.7568,-1.7609,-1.7656,-1.7656,-1.771,-1.7741,-1.7797,-1.7818,-1.786,-1.7844,-1.7863,-1.7868,-1.7873,-1.7878,-1.7751,-1.7868,-1.7867,-1.7867,-1.7867,-1.7867,0,-1.7457,-1.7477,-1.7519,-1.7564,-1.76,-1.7588,-1.7623,-1.7654,-1.7702,-1.7731,-1.7769,-1.7826,-1.7871,-1.7892,-1.7937,-1.7967,-1.7963,-1.7979,-1.7977,-1.7981,-1.7889,-1.7873,-1.7981,-1.7981,-1.7981,-1.7981,-1.7981,-1.7981,-1.7519,-1.7582,-1.759,-1.7666,-1.7685,-1.7738,-1.776,-1.7788,-1.7812,-1.7876,-1.7914,-1.7928,-1.7954,-1.8001,-1.8043,-1.8048,-1.8065,-1.8083,-1.8086,-1.7999,-1.7988,-1.7977,-1.7962,-1.8087,-1.8087,-1.8175,-1.8176,-1.8177]}]]